[[{"header":{"parameterUnit":"m.s-1","parameterCategory":2,"la1":30.2991,"la2":30.254,"lo1":-89.0895,"lo2":-89.0444,"dy":0.0017,"dx":0.0017,"nx":28,"ny":28,"refTime":"2023-07-17T21:00:00:Z","depth":"0","parameterNumber":2,"parameterNumberName":"U-component_of_CURRENTS"},"data":[0,0,0,0,0,0,0,0,0,0,0,0,0,0,0,0,0,0,0,0,0,0,0,0,0,0,0,0,0,0,0,0,0,0,0,0,0,0,0,0,0,0,0,0,0,0,0,0,0,0,0,0,0,0,0,0,0,0,-0.227,-0.227,0,-0.2281,-0.2281,-0.2281,-0.2221,-0.222,-0.2218,-0.2216,-0.2163,-0.2163,-0.2163,0,0,0,0,0,0,0,0,0,0,0,0,0,-0.2261,-0.2261,-0.227,-0.227,-0.227,-0.228,-0.2281,-0.2281,-0.2222,-0.222,-0.2217,-0.2215,-0.2163,-0.2163,-0.2163,0,0,0,0,0,0,0,0,0,0,0,0,0,-0.2268,-0.2261,-0.227,-0.2241,-0.2238,-0.228,-0.2281,-0.2281,-0.2222,-0.222,-0.2217,-0.2214,-0.2162,-0.2163,-0.2163,-0.2219,0,0,-0.2164,-0.2164,0,0,0,0,0,0,0,0,-0.2268,-0.2269,-0.2245,-0.2243,-0.224,-0.2246,-0.2258,-0.2257,-0.2223,-0.2229,-0.2216,-0.2213,-0.2186,-0.2184,-0.2195,-0.2217,-0.2214,-0.2164,-0.2165,-0.2165,-0.2165,0,0,0,0,0,0,0,-0.2267,-0.2268,-0.2275,-0.2245,-0.2242,-0.2249,-0.2247,-0.2258,-0.2222,-0.2229,-0.2224,-0.2225,-0.2184,-0.2194,-0.2193,-0.2214,-0.2164,-0.2165,-0.2165,-0.2165,-0.2269,-0.2272,0,0,0,0,0,0,-0.2264,-0.2268,-0.2274,-0.2275,-0.2247,-0.2251,-0.2248,-0.2248,-0.2223,-0.2217,-0.2227,-0.2222,-0.2195,-0.2192,-0.219,-0.2213,-0.2165,-0.2165,-0.2165,-0.2267,-0.227,-0.2273,0,0,0,0,0,0,-0.2264,-0.2265,-0.2274,-0.2271,-0.2272,-0.2253,-0.2253,-0.2249,-0.2241,-0.2223,-0.2215,-0.222,-0.2193,-0.219,-0.2197,-0.2212,-0.2165,-0.2166,-0.2264,-0.2268,-0.2271,-0.2286,0,0,0,0,0,0,-0.2264,-0.2264,-0.226,-0.2271,-0.2272,-0.2276,-0.2256,-0.2251,-0.2246,-0.2239,-0.2215,-0.2208,-0.2191,-0.2197,-0.2198,-0.2212,-0.2166,-0.2261,-0.2266,-0.227,-0.2282,-0.229,-0.2296,0,0,0,0,0,-0.2263,-0.225,-0.226,-0.2261,-0.2268,-0.2276,-0.2277,-0.2256,-0.2248,-0.224,-0.224,-0.2208,-0.2228,-0.22,-0.22,-0.2214,-0.2258,-0.2264,-0.227,-0.2279,-0.2288,-0.2296,0,0,0,0,0,0,-0.2224,-0.2244,-0.2254,-0.2243,-0.2256,-0.2264,-0.2254,-0.2259,-0.2258,-0.2247,-0.2234,-0.2229,-0.2247,-0.2243,-0.2211,-0.2266,-0.2242,-0.2248,-0.2249,-0.2258,-0.2264,-0.2216,-0.2166,0,0,0,0,0,-0.2225,-0.2225,-0.2249,-0.2237,-0.2246,-0.226,-0.2261,-0.2255,-0.2258,-0.2253,-0.2247,-0.2255,-0.228,-0.2273,-0.2289,-0.2312,-0.2271,-0.2328,-0.2335,-0.2341,-0.2308,-0.2319,-0.2322,-0.2292,-0.2292,-0.2291,0,0,-0.2201,-0.2215,-0.2211,-0.2231,-0.2239,-0.2245,-0.2252,-0.2249,-0.2254,-0.2251,-0.2251,-0.2277,-0.2297,-0.2323,-0.2331,-0.2309,-0.2323,-0.2348,-0.2352,-0.2315,-0.2325,-0.2327,-0.2329,-0.2296,-0.2295,-0.2294,0,0,-0.215,-0.2176,-0.216,-0.2181,-0.22,-0.2222,-0.2222,-0.2241,-0.2248,-0.2275,-0.2284,-0.2315,-0.234,-0.2355,-0.2371,-0.2432,-0.2369,-0.2449,-0.2426,-0.244,-0.244,-0.2441,-0.2349,-0.2342,-0.2441,-0.2441,-0.2441,0,-0.2118,-0.2108,-0.2154,-0.2153,-0.2161,-0.2211,-0.2198,-0.2232,-0.225,-0.2267,-0.2267,-0.2339,-0.2355,-0.2394,-0.2414,-0.2441,-0.2401,-0.2385,-0.2443,-0.2443,-0.2443,-0.2349,-0.234,-0.2443,-0.2442,-0.2442,-0.2442,0,-0.206,-0.2061,-0.2055,-0.2079,-0.2103,-0.2098,-0.216,-0.2187,-0.2221,-0.2254,-0.2306,-0.2348,-0.2378,-0.2414,-0.2425,-0.2451,-0.2403,-0.2455,-0.2405,-0.2445,-0.2346,-0.2336,-0.2445,-0.2444,-0.2444,-0.2443,0,0,-0.1943,-0.2001,-0.1993,-0.1994,-0.2062,-0.2062,-0.2116,-0.2163,-0.218,-0.2242,-0.2259,-0.2342,-0.2368,-0.2387,-0.2424,-0.2433,-0.24,-0.2431,-0.2431,-0.2307,-0.2339,-0.2126,-0.2094,-0.2462,-0.2462,-0.2462,-0.2251,0,-0.187,-0.1847,-0.1911,-0.1891,-0.1883,-0.1979,-0.2017,-0.2081,-0.2149,-0.2187,-0.2273,-0.2305,-0.2362,-0.2369,-0.24,-0.243,-0.2382,-0.2445,-0.2345,-0.2339,-0.2121,-0.208,-0.1955,-0.1742,-0.2241,-0.2239,-0.2238,0,-0.1773,-0.1776,-0.175,-0.1794,-0.18,-0.1812,-0.188,-0.1921,-0.2034,-0.2087,-0.2163,-0.223,-0.2282,-0.2316,-0.2336,-0.2374,-0.2327,-0.2327,-0.2321,-0.2102,-0.2109,-0.1797,-0.1705,-0.1701,-0.2222,-0.2224,-0.2225,0,-0.1632,-0.1651,-0.1626,-0.1641,-0.1714,-0.1725,-0.1762,-0.1873,-0.1904,-0.2008,-0.2029,-0.2139,-0.2157,-0.2192,-0.2217,-0.2271,-0.2187,-0.2274,-0.2007,-0.1988,-0.1845,-0.1814,-0.1707,-0.2205,-0.2206,-0.2206,-0.2207,0,-0.152,-0.1486,-0.1552,-0.1532,-0.1506,-0.1598,-0.1593,-0.167,-0.1756,-0.1772,-0.1942,-0.1959,-0.2128,-0.2132,-0.2158,-0.2023,-0.2137,-0.1942,-0.1919,-0.1841,-0.1814,-0.1776,-0.1904,-0.2198,-0.22,-0.2202,-0.2203,0,-0.137,-0.1413,-0.1379,-0.143,-0.1439,-0.1413,-0.1467,-0.1473,-0.1574,-0.1595,-0.1617,-0.1795,-0.1823,-0.191,-0.1937,-0.1884,-0.1777,-0.1723,-0.1558,-0.1516,-0.1258,-0.1394,-0.127,-0.123,-0.1389,-0.1383,-0.1377,0,-0.1288,-0.1258,-0.1281,-0.1264,-0.1281,-0.1267,-0.1268,-0.1363,-0.1378,-0.1483,-0.1475,-0.1531,-0.1574,-0.1515,-0.1481,-0.1397,-0.1511,-0.1133,-0.1217,-0.1154,-0.1294,-0.1413,-0.1402,-0.1025,-0.1017,-0.1011,-0.1005,0,-0.1134,-0.1154,-0.1144,-0.1115,-0.1095,-0.1077,-0.1079,-0.1064,-0.1171,-0.1191,-0.1228,-0.1269,-0.1244,-0.1158,-0.1022,-0.0974,-0.1127,-0.0985,-0.1019,-0.1037,-0.1071,-0.105,-0.1201,-0.0947,-0.0953,-0.0957,-0.0961,-0.0963,-0.102,-0.0984,-0.0986,-0.0954,-0.0941,-0.09,-0.0836,-0.0862,-0.0847,-0.0859,-0.0964,-0.0941,-0.0861,-0.0711,-0.0669,-0.0451,-0.0685,-0.0412,-0.0582,-0.0702,-0.0666,-0.0598,-0.0274,-0.0276,-0.0277,-0.0279,-0.028,0,-0.0877,-0.0861,-0.0824,-0.0781,-0.0735,-0.0774,-0.0725,-0.0658,-0.0601,-0.0603,-0.0611,-0.0466,-0.032,-0.0262,-0.0031,-0.0037,-0.0153,-0.0105,-0.0319,-0.0329,-0.0313,-0.0295,0.0157,0.0157,0.0157,0.0157,0.0157,0.0157,-0.0798,-0.0727,-0.0721,-0.0604,-0.0583,-0.0473,-0.0427,-0.0351,-0.0306,-0.0176,-0.0086,-0.0096,0.0028,0.0055,0.0129,0.009,-0.0091,-0.0125,-0.0238,-0.032,-0.0365,-0.0408,-0.0413,0.0007,0.0006,-0.0153,-0.0155,-0.0157]},{"header":{"parameterUnit":"m.s-1","parameterCategory":2,"la1":30.2991,"la2":30.254,"lo1":-89.0895,"lo2":-89.0444,"dy":0.0017,"dx":0.0017,"nx":28,"ny":28,"refTime":"2023-07-17T21:00:00:Z","depth":"0","parameterNumber":3,"parameterNumberName":"V-component_of_CURRENTS"},"data":[0,0,0,0,0,0,0,0,0,0,0,0,0,0,0,0,0,0,0,0,0,0,0,0,0,0,0,0,0,0,0,0,0,0,0,0,0,0,0,0,0,0,0,0,0,0,0,0,0,0,0,0,0,0,0,0,0,0,-0.0761,-0.076,0,-0.0717,-0.0716,-0.0716,-0.0656,-0.0655,-0.0654,-0.0653,-0.0496,-0.0493,-0.049,0,0,0,0,0,0,0,0,0,0,0,0,0,-0.0729,-0.073,-0.0761,-0.076,-0.076,-0.0717,-0.0716,-0.0715,-0.0656,-0.0655,-0.0654,-0.0653,-0.0497,-0.0493,-0.049,0,0,0,0,0,0,0,0,0,0,0,0,0,-0.072,-0.0731,-0.0761,-0.0725,-0.0721,-0.0717,-0.0716,-0.0715,-0.0657,-0.0655,-0.0654,-0.0652,-0.0499,-0.0494,-0.0489,-0.0489,0,0,-0.0474,-0.0472,0,0,0,0,0,0,0,0,-0.0721,-0.0721,-0.0731,-0.0728,-0.0723,-0.069,-0.0647,-0.0634,-0.0657,-0.0681,-0.0653,-0.0652,-0.0552,-0.0543,-0.0539,-0.0481,-0.0474,-0.0474,-0.0471,-0.0469,-0.0467,0,0,0,0,0,0,0,-0.0721,-0.0722,-0.0743,-0.0731,-0.0726,-0.0689,-0.0687,-0.0645,-0.0623,-0.0679,-0.0675,-0.067,-0.0549,-0.0544,-0.0535,-0.0472,-0.0474,-0.0469,-0.0466,-0.0465,-0.0362,-0.0363,0,0,0,0,0,0,-0.0732,-0.0724,-0.0745,-0.0742,-0.0718,-0.0691,-0.0688,-0.0703,-0.0626,-0.0614,-0.0671,-0.0668,-0.0553,-0.054,-0.0529,-0.051,-0.0469,-0.0464,-0.0461,-0.0362,-0.0362,-0.0363,0,0,0,0,0,0,-0.0732,-0.0736,-0.0747,-0.073,-0.0729,-0.0694,-0.071,-0.0702,-0.0688,-0.0622,-0.0607,-0.0664,-0.0551,-0.0535,-0.0486,-0.0503,-0.0462,-0.0457,-0.0362,-0.0362,-0.0363,-0.048,0,0,0,0,0,0,-0.0732,-0.0736,-0.0747,-0.0732,-0.073,-0.0746,-0.0711,-0.0703,-0.0689,-0.0683,-0.061,-0.0595,-0.0549,-0.0494,-0.0481,-0.0496,-0.0454,-0.0362,-0.0362,-0.0363,-0.0476,-0.0484,-0.0491,0,0,0,0,0,-0.0731,-0.0749,-0.0749,-0.0751,-0.0749,-0.0747,-0.0743,-0.0711,-0.069,-0.0691,-0.0638,-0.0597,-0.0487,-0.049,-0.0476,-0.0489,-0.0361,-0.0362,-0.0362,-0.0472,-0.0483,-0.0491,0,0,0,0,0,0,-0.0734,-0.0745,-0.0744,-0.0763,-0.0758,-0.0736,-0.0733,-0.0715,-0.0679,-0.0665,-0.06,-0.0581,-0.0544,-0.0497,-0.0502,-0.0458,-0.0418,-0.0415,-0.0506,-0.0515,-0.0523,-0.0557,-0.045,0,0,0,0,0,-0.0746,-0.0766,-0.0765,-0.0779,-0.078,-0.0759,-0.0753,-0.0736,-0.0703,-0.0686,-0.0636,-0.058,-0.0539,-0.0511,-0.0464,-0.0442,-0.0394,-0.0438,-0.0446,-0.0453,-0.047,-0.0443,-0.0451,-0.0364,-0.0364,-0.0364,0,0,-0.0746,-0.0758,-0.0765,-0.0781,-0.0774,-0.0787,-0.0751,-0.0747,-0.0758,-0.0673,-0.066,-0.0603,-0.0537,-0.0513,-0.0493,-0.0475,-0.0442,-0.0454,-0.0461,-0.0473,-0.0445,-0.0454,-0.0461,-0.0365,-0.0365,-0.0365,0,0,-0.0754,-0.0775,-0.0789,-0.08,-0.0801,-0.0799,-0.0801,-0.0784,-0.0777,-0.0764,-0.0704,-0.0663,-0.0598,-0.0563,-0.0536,-0.0557,-0.0484,-0.0532,-0.0603,-0.0578,-0.0585,-0.0592,-0.0503,-0.05,-0.0538,-0.0539,-0.0539,0,-0.075,-0.0781,-0.0789,-0.0811,-0.0824,-0.0811,-0.0829,-0.0833,-0.08,-0.0805,-0.0769,-0.0696,-0.063,-0.0619,-0.0619,-0.0579,-0.053,-0.0578,-0.0591,-0.0597,-0.0601,-0.0509,-0.0505,-0.0544,-0.0544,-0.0543,-0.0542,0,-0.0771,-0.0798,-0.0809,-0.0844,-0.0862,-0.0875,-0.0891,-0.0901,-0.0891,-0.089,-0.0876,-0.0802,-0.0757,-0.0732,-0.0678,-0.0679,-0.0618,-0.0606,-0.0577,-0.0618,-0.0516,-0.051,-0.0552,-0.055,-0.0549,-0.0547,0,0,-0.0753,-0.081,-0.0814,-0.0841,-0.0883,-0.0898,-0.0943,-0.0977,-0.0998,-0.0984,-0.1004,-0.0944,-0.0905,-0.087,-0.0802,-0.0781,-0.0743,-0.0711,-0.0707,-0.0639,-0.064,-0.0556,-0.054,-0.0741,-0.0741,-0.0742,-0.0542,0,-0.0761,-0.0807,-0.0841,-0.0892,-0.0919,-0.0954,-0.0997,-0.1031,-0.1044,-0.106,-0.1035,-0.1009,-0.0961,-0.092,-0.0904,-0.0796,-0.0738,-0.0795,-0.0596,-0.0589,-0.0526,-0.0536,-0.0476,-0.0292,-0.0535,-0.0534,-0.0533,0,-0.0771,-0.0805,-0.0852,-0.0926,-0.0942,-0.0975,-0.1047,-0.1081,-0.1126,-0.113,-0.114,-0.1104,-0.1079,-0.1014,-0.0898,-0.0939,-0.079,-0.0702,-0.0692,-0.0577,-0.0497,-0.0296,-0.027,-0.0031,-0.0523,-0.0524,-0.0524,0,-0.0753,-0.0818,-0.0857,-0.0882,-0.0959,-0.0994,-0.1037,-0.1097,-0.1128,-0.1165,-0.1169,-0.1166,-0.1123,-0.1029,-0.0875,-0.0871,-0.0727,-0.0691,-0.0465,-0.0453,-0.0345,-0.0325,-0.0086,-0.0569,-0.0569,-0.057,-0.057,0,-0.0758,-0.0787,-0.085,-0.0872,-0.0927,-0.0987,-0.1044,-0.1088,-0.1138,-0.1172,-0.1187,-0.1193,-0.1125,-0.1047,-0.0902,-0.0686,-0.0744,-0.0473,-0.0413,-0.0376,-0.0363,-0.0103,-0.0074,-0.0562,-0.0564,-0.0565,-0.0566,0,-0.0726,-0.0767,-0.0814,-0.0891,-0.0919,-0.0955,-0.1043,-0.1081,-0.1126,-0.1166,-0.1173,-0.1197,-0.113,-0.1034,-0.0855,-0.0681,-0.0375,-0.0383,-0.0321,-0.0258,0.0175,0.0192,0.0376,0.0496,-0.0094,-0.0091,-0.0088,0,-0.0706,-0.0727,-0.0809,-0.084,-0.0873,-0.0936,-0.0985,-0.1063,-0.1105,-0.1164,-0.1177,-0.1147,-0.1152,-0.0899,-0.0661,-0.0406,-0.0253,-0.0065,-0.005,0.0212,0.0276,0.0249,0.0334,0.0083,0.0087,0.009,0.0092,0,-0.0664,-0.0694,-0.0732,-0.0797,-0.0851,-0.0914,-0.0986,-0.102,-0.1106,-0.114,-0.1181,-0.1197,-0.1024,-0.0821,-0.0488,-0.0263,0.0059,0.0013,0.025,0.0399,0.0415,0.0556,-0.0016,0.012,0.0117,0.0115,0.0113,0.0112,-0.0615,-0.0634,-0.0688,-0.075,-0.081,-0.0873,-0.0906,-0.0984,-0.1043,-0.1087,-0.1152,-0.1159,-0.0886,-0.0489,-0.0217,0.0419,0.0269,0.0657,0.0656,0.0609,0.0707,0.022,0.0428,0.0427,0.0426,0.0425,0.0425,0,-0.0552,-0.0589,-0.0641,-0.0714,-0.0759,-0.081,-0.0891,-0.091,-0.0958,-0.1014,-0.1058,-0.0901,-0.0492,-0.0078,0.0678,0.1046,0.1103,0.1226,0.1222,0.1281,0.0863,0.086,0.1209,0.1208,0.1208,0.1208,0.1208,0.1207,-0.0517,-0.055,-0.0594,-0.0646,-0.069,-0.0724,-0.0755,-0.0787,-0.0817,-0.0805,-0.078,-0.0785,-0.02,0.0688,0.1524,0.1657,0.1849,0.1752,0.1866,0.1615,0.1563,0.1513,0.1527,0.201,0.2011,0.2309,0.2312,0.2314]}],[{"header":{"parameterUnit":"m.s-1","parameterCategory":2,"la1":30.2991,"la2":30.254,"lo1":-89.0895,"lo2":-89.0444,"dy":0.0017,"dx":0.0017,"nx":28,"ny":28,"refTime":"2023-07-17T21:00:00:Z","depth":"2","parameterNumber":2,"parameterNumberName":"U-component_of_CURRENTS"},"data":[0,0,0,0,0,0,0,0,0,0,0,0,0,0,0,0,0,0,0,0,0,0,0,0,0,0,0,0,0,0,0,0,0,0,0,0,0,0,0,0,0,0,0,0,0,0,0,0,0,0,0,0,0,0,0,0,0,0,-0.2276,-0.2277,0,-0.2311,-0.2311,-0.2311,-0.2305,-0.2305,-0.2305,-0.2305,-0.2413,-0.2416,-0.2418,0,0,0,0,0,0,0,0,0,0,0,0,0,-0.2176,-0.2177,-0.2276,-0.2277,-0.2279,-0.2311,-0.2311,-0.2311,-0.2305,-0.2305,-0.2305,-0.2305,-0.2412,-0.2415,-0.2419,0,0,0,0,0,0,0,0,0,0,0,0,0,-0.2208,-0.2177,-0.2276,-0.2285,-0.2287,-0.2311,-0.2311,-0.2311,-0.2305,-0.2305,-0.2305,-0.2305,-0.2411,-0.2415,-0.2419,-0.2442,0,0,-0.2432,-0.2434,0,0,0,0,0,0,0,0,-0.2206,-0.2211,-0.2283,-0.2285,-0.2287,-0.2311,-0.2315,-0.2361,-0.2305,-0.229,-0.2305,-0.2305,-0.2391,-0.2396,-0.239,-0.2447,-0.2451,-0.2432,-0.2435,-0.2437,-0.2438,0,0,0,0,0,0,0,-0.2204,-0.2209,-0.2282,-0.2284,-0.2287,-0.2279,-0.2283,-0.2323,-0.2334,-0.2291,-0.2293,-0.2309,-0.2391,-0.2386,-0.2393,-0.2453,-0.2432,-0.2436,-0.2438,-0.244,-0.2523,-0.2523,0,0,0,0,0,0,-0.2217,-0.2208,-0.2281,-0.2284,-0.2255,-0.2281,-0.2285,-0.2296,-0.2332,-0.2339,-0.2309,-0.2309,-0.2379,-0.2388,-0.2397,-0.2418,-0.2437,-0.244,-0.2443,-0.2523,-0.2523,-0.2522,0,0,0,0,0,0,-0.2215,-0.2223,-0.228,-0.2253,-0.2261,-0.2283,-0.2295,-0.2297,-0.2325,-0.2346,-0.2353,-0.234,-0.238,-0.2391,-0.2425,-0.2423,-0.2442,-0.2446,-0.2523,-0.2523,-0.2523,-0.2465,0,0,0,0,0,0,-0.2212,-0.2222,-0.2223,-0.2254,-0.2263,-0.2287,-0.2296,-0.2298,-0.2337,-0.2338,-0.2375,-0.2383,-0.2381,-0.2418,-0.2429,-0.2429,-0.2449,-0.2524,-0.2523,-0.2523,-0.2467,-0.2463,-0.2459,0,0,0,0,0,-0.2208,-0.2217,-0.2223,-0.2232,-0.2267,-0.2288,-0.229,-0.2301,-0.2339,-0.2332,-0.2357,-0.2383,-0.2422,-0.2421,-0.2434,-0.2435,-0.2524,-0.2523,-0.2523,-0.2469,-0.2464,-0.2459,0,0,0,0,0,0,-0.2191,-0.2219,-0.2225,-0.2247,-0.2263,-0.2289,-0.229,-0.2327,-0.2343,-0.235,-0.2386,-0.2393,-0.2418,-0.2442,-0.2441,-0.2456,-0.2477,-0.2479,-0.2432,-0.2427,-0.2423,-0.2435,-0.2453,0,0,0,0,0,-0.2186,-0.2199,-0.2221,-0.2247,-0.2243,-0.2278,-0.2293,-0.2307,-0.2335,-0.2343,-0.2369,-0.2398,-0.242,-0.2437,-0.245,-0.2475,-0.2479,-0.2482,-0.2478,-0.2474,-0.2492,-0.2537,-0.2538,-0.252,-0.252,-0.252,0,0,-0.2188,-0.2214,-0.2219,-0.2244,-0.2252,-0.2249,-0.2284,-0.2306,-0.232,-0.2356,-0.2372,-0.2391,-0.2424,-0.2423,-0.2438,-0.2448,-0.2456,-0.2473,-0.2469,-0.249,-0.2536,-0.2538,-0.254,-0.252,-0.252,-0.252,0,0,-0.2188,-0.2216,-0.22,-0.2212,-0.2233,-0.225,-0.2269,-0.2292,-0.2302,-0.2328,-0.2348,-0.2366,-0.241,-0.2407,-0.2424,-0.2419,-0.2434,-0.2429,-0.242,-0.2462,-0.2464,-0.2466,-0.2364,-0.2358,-0.2426,-0.2426,-0.2425,0,-0.2189,-0.2187,-0.2203,-0.2195,-0.2224,-0.2258,-0.2261,-0.2267,-0.2304,-0.2326,-0.2325,-0.239,-0.2399,-0.243,-0.2399,-0.241,-0.24,-0.2433,-0.2457,-0.246,-0.2464,-0.2359,-0.2353,-0.2423,-0.2423,-0.2423,-0.2424,0,-0.2155,-0.2166,-0.2168,-0.217,-0.2194,-0.2212,-0.223,-0.224,-0.228,-0.2304,-0.2345,-0.2347,-0.2403,-0.2384,-0.2386,-0.2415,-0.2379,-0.2445,-0.2469,-0.2462,-0.235,-0.2345,-0.2419,-0.242,-0.242,-0.2421,0,0,-0.2154,-0.2139,-0.2147,-0.2157,-0.2195,-0.222,-0.2231,-0.2263,-0.2314,-0.2307,-0.2373,-0.2358,-0.2394,-0.2415,-0.2423,-0.2426,-0.2374,-0.244,-0.2443,-0.2332,-0.2369,-0.2231,-0.2211,-0.2467,-0.2469,-0.247,-0.224,0,-0.2132,-0.2106,-0.2127,-0.2154,-0.215,-0.2203,-0.224,-0.228,-0.232,-0.2371,-0.2377,-0.2422,-0.2401,-0.2427,-0.2438,-0.2399,-0.2379,-0.2424,-0.2399,-0.2395,-0.2274,-0.221,-0.2075,-0.1855,-0.2235,-0.2235,-0.2234,0,-0.2104,-0.2098,-0.209,-0.2169,-0.2179,-0.2208,-0.2311,-0.2358,-0.2421,-0.2455,-0.2499,-0.2509,-0.2474,-0.2499,-0.2422,-0.2457,-0.2423,-0.2379,-0.2372,-0.2279,-0.2254,-0.1948,-0.1832,-0.2226,-0.2227,-0.2227,-0.2228,0,-0.2097,-0.2109,-0.2114,-0.2131,-0.2188,-0.2225,-0.2293,-0.238,-0.2422,-0.2512,-0.2501,-0.2546,-0.2488,-0.2509,-0.2354,-0.2418,-0.2251,-0.2343,-0.2172,-0.2155,-0.2053,-0.2027,-0.235,-0.235,-0.235,-0.2351,-0.2352,0,-0.2091,-0.21,-0.2106,-0.2106,-0.2176,-0.2247,-0.2363,-0.2415,-0.2494,-0.2507,-0.2554,-0.2495,-0.2497,-0.2376,-0.2351,-0.2165,-0.2245,-0.2138,-0.2111,-0.2012,-0.1987,-0.2364,-0.2369,-0.2342,-0.2344,-0.2346,-0.2347,0,-0.2067,-0.2066,-0.2071,-0.2119,-0.2163,-0.222,-0.2363,-0.2422,-0.2482,-0.2481,-0.2472,-0.2394,-0.2213,-0.2142,-0.207,-0.206,-0.1977,-0.1917,-0.1707,-0.1662,-0.185,-0.1855,-0.1725,-0.1719,-0.1714,-0.1709,-0.1705,0,-0.2045,-0.203,-0.207,-0.2106,-0.2125,-0.224,-0.2321,-0.2422,-0.2436,-0.2371,-0.2304,-0.2119,-0.1962,-0.1739,-0.169,-0.1578,-0.172,-0.1425,-0.1572,-0.1811,-0.1798,-0.1811,-0.1822,-0.1347,-0.1341,-0.1336,-0.1332,0,-0.2,-0.2001,-0.2007,-0.206,-0.2122,-0.2211,-0.2283,-0.2266,-0.2321,-0.2214,-0.201,-0.1874,-0.1635,-0.1441,-0.1301,-0.1248,-0.1447,-0.1316,-0.1636,-0.1546,-0.1444,-0.1435,-0.1461,-0.1286,-0.129,-0.1294,-0.1296,-0.1298,-0.1981,-0.196,-0.197,-0.2023,-0.2112,-0.2134,-0.2133,-0.2118,-0.2043,-0.182,-0.1747,-0.1499,-0.1432,-0.1149,-0.1018,-0.0932,-0.1088,-0.1103,-0.1124,-0.115,-0.1168,-0.1066,-0.0828,-0.083,-0.0832,-0.0833,-0.0834,0,-0.1926,-0.1923,-0.195,-0.1987,-0.2023,-0.21,-0.2078,-0.1993,-0.1804,-0.1592,-0.1377,-0.1124,-0.0955,-0.0886,-0.0714,-0.0678,-0.0717,-0.0618,-0.072,-0.0763,-0.0803,-0.0811,-0.0372,-0.0371,-0.037,-0.0369,0,0,-0.1897,-0.185,-0.183,-0.1858,-0.1935,-0.1915,-0.186,-0.1678,-0.1506,-0.1165,-0.099,-0.0944,-0.0927,-0.0723,-0.061,-0.0479,-0.0615,-0.0409,-0.0778,-0.0944,-0.0983,-0.1068,-0.1126,0,0,0,0,0]},{"header":{"parameterUnit":"m.s-1","parameterCategory":2,"la1":30.2991,"la2":30.254,"lo1":-89.0895,"lo2":-89.0444,"dy":0.0017,"dx":0.0017,"nx":28,"ny":28,"refTime":"2023-07-17T21:00:00:Z","depth":"2","parameterNumber":3,"parameterNumberName":"V-component_of_CURRENTS"},"data":[0,0,0,0,0,0,0,0,0,0,0,0,0,0,0,0,0,0,0,0,0,0,0,0,0,0,0,0,0,0,0,0,0,0,0,0,0,0,0,0,0,0,0,0,0,0,0,0,0,0,0,0,0,0,0,0,0,0,-0.0284,-0.0282,0,-0.0179,-0.0178,-0.0178,-0.0135,-0.0135,-0.0134,-0.0134,0.0128,0.0134,0.0141,0,0,0,0,0,0,0,0,0,0,0,0,0,-0.0413,-0.0412,-0.0284,-0.0282,-0.028,-0.0179,-0.0178,-0.0177,-0.0135,-0.0135,-0.0134,-0.0134,0.0126,0.0134,0.0141,0,0,0,0,0,0,0,0,0,0,0,0,0,-0.0344,-0.0411,-0.0284,-0.0242,-0.0236,-0.0179,-0.0178,-0.0177,-0.0135,-0.0135,-0.0134,-0.0133,0.0123,0.0133,0.0143,0.0192,0,0,0.0173,0.0177,0,0,0,0,0,0,0,0,-0.0348,-0.034,-0.025,-0.0244,-0.0238,-0.0163,-0.0127,-0.0043,-0.0135,-0.0181,-0.0134,-0.0133,0.0049,0.0065,0.0072,0.0204,0.0216,0.0174,0.018,0.0184,0.0187,0,0,0,0,0,0,0,-0.0353,-0.0344,-0.0249,-0.0248,-0.0241,-0.0215,-0.0206,-0.0112,-0.0073,-0.0177,-0.0172,-0.0149,0.0052,0.0062,0.0079,0.022,0.0173,0.0182,0.0188,0.0192,0.0452,0.0453,0,0,0,0,0,0,-0.0354,-0.0349,-0.0252,-0.0245,-0.0285,-0.0213,-0.0203,-0.0194,-0.0077,-0.0058,-0.015,-0.0148,0.0044,0.0067,0.0088,0.0152,0.0184,0.0193,0.0199,0.0451,0.0452,0.0453,0,0,0,0,0,0,-0.0358,-0.0348,-0.0257,-0.0289,-0.0274,-0.0211,-0.0201,-0.0192,-0.0167,-0.0057,-0.0036,-0.0132,0.0046,0.0074,0.0163,0.0163,0.0198,0.0207,0.045,0.0452,0.0453,0.0282,0,0,0,0,0,0,-0.0363,-0.035,-0.0351,-0.0289,-0.0272,-0.0226,-0.0201,-0.019,-0.0151,-0.0147,-0.0034,-0.0011,0.0048,0.0148,0.0173,0.0177,0.0214,0.0449,0.0451,0.0452,0.0287,0.0278,0.027,0,0,0,0,0,-0.0368,-0.0367,-0.0352,-0.034,-0.0274,-0.0225,-0.0216,-0.0173,-0.0151,-0.0148,-0.0077,-0.0014,0.0178,0.0156,0.0186,0.0193,0.0448,0.045,0.0452,0.0291,0.028,0.027,0,0,0,0,0,0,-0.0419,-0.036,-0.0342,-0.0323,-0.0279,-0.0215,-0.0205,-0.0167,-0.0113,-0.0105,-0.0007,0.0021,0.0098,0.0181,0.0154,0.0278,0.0328,0.0336,0.0195,0.0186,0.0177,0.0159,0.0223,0,0,0,0,0,-0.0431,-0.042,-0.0356,-0.0341,-0.0322,-0.0263,-0.0237,-0.0206,-0.0144,-0.0121,-0.0045,0.0048,0.0128,0.0182,0.0263,0.0336,0.044,0.0367,0.0358,0.035,0.036,0.0511,0.0516,0.046,0.046,0.046,0,0,-0.0446,-0.041,-0.0404,-0.0352,-0.0318,-0.0301,-0.0248,-0.0213,-0.0198,-0.0095,-0.0055,0.0022,0.0142,0.02,0.0246,0.0272,0.0417,0.0353,0.0344,0.0359,0.0514,0.0519,0.0524,0.0462,0.0462,0.0461,0,0,-0.0468,-0.0441,-0.0441,-0.0414,-0.036,-0.0325,-0.0312,-0.025,-0.0225,-0.0168,-0.01,-0.003,0.0104,0.0163,0.022,0.023,0.0363,0.0273,0.022,0.0365,0.037,0.0376,0.0486,0.0503,0.0273,0.0272,0.0272,0,-0.0487,-0.0481,-0.0432,-0.0427,-0.041,-0.0337,-0.0336,-0.0301,-0.0221,-0.0194,-0.0168,0.0003,0.0083,0.0167,0.0152,0.0207,0.0313,0.0232,0.035,0.0359,0.0368,0.048,0.0501,0.0264,0.0265,0.0266,0.0267,0,-0.0511,-0.051,-0.0507,-0.0484,-0.046,-0.0447,-0.039,-0.0365,-0.0317,-0.027,-0.0182,-0.0085,0.0028,0.0052,0.0101,0.02,0.0259,0.0311,0.036,0.0362,0.0481,0.0506,0.0253,0.0256,0.0258,0.026,0,0,-0.0543,-0.0529,-0.0529,-0.0539,-0.0493,-0.0477,-0.0455,-0.0407,-0.0369,-0.0306,-0.0225,-0.0153,-0.0085,-0.0014,0.0064,0.0164,0.0282,0.0254,0.0265,0.0335,0.06,0.053,0.0552,0.0366,0.037,0.0373,0.0644,0,-0.0577,-0.0596,-0.0571,-0.0592,-0.06,-0.0547,-0.0526,-0.0475,-0.0401,-0.0305,-0.0207,-0.0096,-0.0109,-0.0029,0.0053,0.0262,0.0348,0.0204,0.0614,0.0626,0.0541,0.0578,0.0471,0.0696,0.067,0.0674,0.0677,0,-0.0608,-0.0619,-0.0648,-0.065,-0.0646,-0.0647,-0.0591,-0.0554,-0.0418,-0.0345,-0.024,-0.0116,0.0028,0.0047,0.0328,0.0249,0.0399,0.0531,0.0546,0.0563,0.0603,0.0702,0.0744,0.0721,0.0717,0.0714,0.0711,0,-0.0656,-0.0674,-0.0704,-0.0707,-0.0689,-0.0694,-0.067,-0.0574,-0.051,-0.0335,-0.0241,-0.0066,0.007,0.0278,0.0479,0.0459,0.0812,0.0837,0.0896,0.0894,0.0925,0.0916,0.1036,0.1035,0.1035,0.1034,0.1033,0,-0.0703,-0.073,-0.0737,-0.0757,-0.0783,-0.0745,-0.0705,-0.0662,-0.0508,-0.0414,-0.026,-0.0137,0.0143,0.0358,0.0539,0.0776,0.0861,0.09,0.0968,0.0857,0.084,0.0965,0.0953,0.1044,0.1042,0.104,0.1038,0,-0.0752,-0.0754,-0.0798,-0.0807,-0.0809,-0.0826,-0.0745,-0.0689,-0.0566,-0.0415,-0.0343,-0.012,0.015,0.0394,0.0766,0.084,0.1097,0.1148,0.0964,0.1001,0.1074,0.1051,0.1299,0.1299,0.1299,0.1299,0.1299,0,-0.0781,-0.0804,-0.0841,-0.0863,-0.0876,-0.0865,-0.0834,-0.0727,-0.0648,-0.0427,-0.0354,-0.0071,0.0122,0.0581,0.0822,0.1143,0.114,0.1166,0.1081,0.1065,0.1107,0.1084,0.1061,0.1069,0.1067,0.1066,0.1064,0,-0.0838,-0.0846,-0.0882,-0.0921,-0.0931,-0.0903,-0.086,-0.081,-0.0655,-0.0531,-0.035,-0.0165,0.024,0.0544,0.0894,0.1037,0.1108,0.114,0.1261,0.0971,0.0858,0.0894,0.0879,0.1051,0.1052,0.1053,0.1054,0.1054,-0.0875,-0.0915,-0.0948,-0.0984,-0.0978,-0.095,-0.0924,-0.0847,-0.0736,-0.0536,-0.0367,-0.0049,0.0192,0.0726,0.0881,0.1032,0.1095,0.1095,0.1098,0.1103,0.098,0.0868,0.104,0.1042,0.1043,0.1044,0.1045,0,-0.092,-0.0952,-0.0996,-0.1039,-0.1044,-0.0998,-0.0929,-0.0875,-0.0778,-0.0523,-0.0311,0.0019,0.0345,0.0632,0.0867,0.0972,0.0945,0.0937,0.089,0.0903,0.0914,0.0778,0.0788,0.0788,0.0788,0.0788,0,0,-0.0943,-0.0999,-0.1021,-0.1077,-0.1082,-0.1034,-0.0988,-0.0905,-0.0718,-0.0485,-0.0196,0.0146,0.0468,0.0561,0.0655,0.0751,0.0783,0.0717,0.0907,0.0845,0.0855,0.0986,0.0788,0,0,0,0,0]}],[{"header":{"parameterUnit":"m.s-1","parameterCategory":2,"la1":30.2991,"la2":30.254,"lo1":-89.0895,"lo2":-89.0444,"dy":0.0017,"dx":0.0017,"nx":28,"ny":28,"refTime":"2023-07-17T21:00:00:Z","depth":"4","parameterNumber":2,"parameterNumberName":"U-component_of_CURRENTS"},"data":[0,0,0,0,0,0,0,0,0,0,0,0,0,0,0,0,0,0,0,0,0,0,0,0,0,0,0,0,0,0,0,0,0,0,0,0,0,0,0,0,0,0,0,0,0,0,0,0,0,0,0,0,0,0,0,0,0,0,-0.1369,-0.137,0,-0.1401,-0.1401,-0.1401,-0.1424,-0.1424,-0.1425,-0.1425,-0.1481,-0.1482,-0.1483,0,0,0,0,0,0,0,0,0,0,0,0,0,-0.1307,-0.1307,-0.1369,-0.137,-0.1371,-0.1401,-0.1401,-0.1401,-0.1423,-0.1424,-0.1425,-0.1425,-0.1481,-0.1482,-0.1483,0,0,0,0,0,0,0,0,0,0,0,0,0,-0.1332,-0.1308,-0.1369,-0.1388,-0.1391,-0.1401,-0.1401,-0.1401,-0.1423,-0.1424,-0.1425,-0.1426,-0.148,-0.1482,-0.1483,-0.1477,0,0,-0.1488,-0.1489,0,0,0,0,0,0,0,0,-0.1331,-0.1334,-0.1385,-0.1387,-0.139,-0.1412,-0.1399,-0.1429,-0.1423,-0.1407,-0.1425,-0.1426,-0.1462,-0.1465,-0.1464,-0.148,-0.1482,-0.1488,-0.1489,-0.149,-0.149,0,0,0,0,0,0,0,-0.1329,-0.1333,-0.1378,-0.1386,-0.1389,-0.1388,-0.1392,-0.1405,-0.1427,-0.1409,-0.1411,-0.142,-0.1463,-0.1462,-0.1465,-0.1483,-0.1488,-0.1489,-0.149,-0.1491,-0.1561,-0.1562,0,0,0,0,0,0,-0.1333,-0.1331,-0.1377,-0.1379,-0.1366,-0.1389,-0.1393,-0.1401,-0.1427,-0.1432,-0.1419,-0.1421,-0.1459,-0.1464,-0.1468,-0.1544,-0.149,-0.1491,-0.1492,-0.156,-0.1562,-0.1563,0,0,0,0,0,0,-0.1331,-0.1336,-0.1376,-0.1359,-0.1364,-0.139,-0.1398,-0.1402,-0.1431,-0.1436,-0.1441,-0.1449,-0.146,-0.1465,-0.15,-0.1543,-0.1492,-0.1493,-0.1559,-0.1561,-0.1562,-0.1644,0,0,0,0,0,0,-0.1329,-0.1335,-0.1348,-0.1359,-0.1366,-0.1399,-0.1398,-0.1402,-0.1435,-0.1438,-0.1462,-0.1466,-0.1461,-0.1498,-0.1502,-0.1544,-0.1494,-0.1558,-0.156,-0.1562,-0.164,-0.1648,-0.1655,0,0,0,0,0,-0.1327,-0.1338,-0.1348,-0.1354,-0.138,-0.14,-0.1403,-0.1421,-0.1436,-0.145,-0.1468,-0.1467,-0.1512,-0.15,-0.1504,-0.1548,-0.1557,-0.1559,-0.1562,-0.1637,-0.1646,-0.1655,0,0,0,0,0,0,-0.1319,-0.1342,-0.1353,-0.1372,-0.1394,-0.1406,-0.1423,-0.1439,-0.1463,-0.1474,-0.148,-0.1485,-0.1531,-0.1523,-0.1509,-0.1571,-0.1535,-0.1538,-0.1591,-0.16,-0.1607,-0.1593,-0.1495,0,0,0,0,0,-0.1322,-0.1337,-0.1361,-0.1379,-0.1393,-0.1415,-0.143,-0.1445,-0.1465,-0.1478,-0.1495,-0.1513,-0.1537,-0.1556,-0.1566,-0.1601,-0.1576,-0.163,-0.1638,-0.1644,-0.1634,-0.1632,-0.1638,-0.157,-0.157,-0.157,0,0,-0.1327,-0.134,-0.1352,-0.1378,-0.1397,-0.1426,-0.1426,-0.1458,-0.149,-0.148,-0.1531,-0.1542,-0.1551,-0.1591,-0.1611,-0.1595,-0.1652,-0.1647,-0.1653,-0.1639,-0.1635,-0.1641,-0.1647,-0.1571,-0.1571,-0.1571,0,0,-0.1338,-0.1356,-0.1374,-0.1397,-0.1432,-0.1447,-0.1466,-0.1495,-0.152,-0.1563,-0.1568,-0.1599,-0.1636,-0.1647,-0.1659,-0.1711,-0.169,-0.1726,-0.176,-0.1759,-0.1764,-0.1769,-0.1754,-0.1757,-0.1732,-0.1733,-0.1733,0,-0.1347,-0.1366,-0.1384,-0.141,-0.1433,-0.1464,-0.1495,-0.1525,-0.1563,-0.1582,-0.1591,-0.1645,-0.166,-0.1706,-0.1728,-0.1731,-0.1718,-0.1731,-0.1769,-0.1773,-0.1776,-0.176,-0.1761,-0.1737,-0.1736,-0.1736,-0.1735,0,-0.1363,-0.1393,-0.1408,-0.1452,-0.1481,-0.151,-0.1555,-0.1589,-0.1626,-0.1649,-0.1704,-0.172,-0.1744,-0.1769,-0.1771,-0.181,-0.179,-0.1779,-0.1748,-0.1788,-0.1768,-0.1768,-0.1743,-0.1741,-0.174,-0.1739,0,0,-0.1348,-0.1408,-0.1417,-0.1441,-0.1503,-0.1523,-0.1588,-0.1637,-0.1666,-0.1721,-0.1754,-0.1815,-0.1816,-0.1827,-0.1838,-0.1849,-0.1874,-0.1831,-0.1829,-0.1818,-0.1865,-0.1716,-0.1701,-0.1875,-0.1876,-0.1876,-0.1846,0,-0.1358,-0.1405,-0.1437,-0.1493,-0.152,-0.1569,-0.1616,-0.1668,-0.171,-0.1746,-0.179,-0.182,-0.1844,-0.1853,-0.1877,-0.1872,-0.1877,-0.1882,-0.1825,-0.1822,-0.1687,-0.1697,-0.1877,-0.1846,-0.1846,-0.1845,-0.1845,0,-0.1357,-0.1389,-0.1442,-0.1499,-0.1516,-0.1557,-0.1619,-0.1661,-0.1726,-0.1755,-0.1805,-0.1826,-0.1873,-0.1869,-0.1897,-0.1902,-0.1886,-0.1879,-0.1878,-0.1703,-0.1672,-0.1794,-0.1845,-0.1845,-0.1845,-0.1845,-0.1845,0,-0.1316,-0.1388,-0.1426,-0.145,-0.1525,-0.1558,-0.1597,-0.1663,-0.1685,-0.1751,-0.176,-0.183,-0.1834,-0.1863,-0.1872,-0.1884,-0.1874,-0.1881,-0.173,-0.172,-0.183,-0.1826,-0.1872,-0.1872,-0.1872,-0.1873,-0.1873,0,-0.1293,-0.1327,-0.141,-0.143,-0.1462,-0.1529,-0.1562,-0.1607,-0.166,-0.1664,-0.175,-0.1742,-0.1828,-0.1839,-0.1864,-0.179,-0.1867,-0.172,-0.1696,-0.1866,-0.1866,-0.1831,-0.1826,-0.1871,-0.1872,-0.1872,-0.1872,0,-0.1235,-0.1296,-0.1337,-0.142,-0.1443,-0.1463,-0.1523,-0.1538,-0.1597,-0.16,-0.1616,-0.1672,-0.1675,-0.1744,-0.1762,-0.1728,-0.1708,-0.1658,-0.1827,-0.1816,-0.156,-0.156,-0.1482,-0.1476,-0.1472,-0.1468,-0.1464,0,-0.1204,-0.1224,-0.1309,-0.1327,-0.1366,-0.1407,-0.1426,-0.1497,-0.1505,-0.1533,-0.1517,-0.153,-0.1561,-0.1467,-0.1563,-0.1583,-0.1567,-0.1542,-0.1558,-0.1532,-0.1518,-0.1526,-0.1532,-0.1457,-0.1455,-0.1454,-0.1453,0,-0.1137,-0.1181,-0.1215,-0.1248,-0.1279,-0.1294,-0.1328,-0.1315,-0.1371,-0.1438,-0.1351,-0.1333,-0.1312,-0.1344,-0.1355,-0.1381,-0.1562,-0.1492,-0.1502,-0.1517,-0.1501,-0.1492,-0.1505,-0.1436,-0.1438,-0.144,-0.1441,0,-0.1086,-0.1087,-0.1134,-0.1149,-0.1179,-0.1158,-0.1194,-0.1177,-0.1179,-0.122,-0.1182,-0.121,-0.1263,-0.1234,-0.1262,-0.1261,-0.1248,-0.1214,-0.1239,-0.1259,-0.1206,-0.1153,-0.0943,0,0,0,0,0,-0.1023,-0.1015,-0.1028,-0.1031,-0.1054,-0.1063,-0.1113,-0.1154,-0.1206,-0.1096,-0.1129,-0.1104,-0.1073,-0.1104,-0.1062,-0.1204,-0.129,-0.1151,-0.1272,-0.1344,-0.1363,-0.1325,0,0,0,0,0,0,-0.0982,-0.0996,-0.0993,-0.092,-0.0897,-0.0899,-0.0923,-0.0969,-0.0917,-0.0977,-0.0973,-0.1012,-0.1027,-0.1071,-0.1026,-0.1042,-0.1088,-0.1188,-0.1184,-0.1333,-0.135,-0.1366,-0.1334,0,0,0,0,0]},{"header":{"parameterUnit":"m.s-1","parameterCategory":2,"la1":30.2991,"la2":30.254,"lo1":-89.0895,"lo2":-89.0444,"dy":0.0017,"dx":0.0017,"nx":28,"ny":28,"refTime":"2023-07-17T21:00:00:Z","depth":"4","parameterNumber":3,"parameterNumberName":"V-component_of_CURRENTS"},"data":[0,0,0,0,0,0,0,0,0,0,0,0,0,0,0,0,0,0,0,0,0,0,0,0,0,0,0,0,0,0,0,0,0,0,0,0,0,0,0,0,0,0,0,0,0,0,0,0,0,0,0,0,0,0,0,0,0,0,-0.0267,-0.0266,0,-0.0237,-0.0237,-0.0237,-0.0217,-0.0217,-0.0216,-0.0216,-0.0152,-0.0151,-0.0149,0,0,0,0,0,0,0,0,0,0,0,0,0,-0.0302,-0.0302,-0.0267,-0.0266,-0.0266,-0.0237,-0.0237,-0.0237,-0.0217,-0.0217,-0.0216,-0.0216,-0.0153,-0.0151,-0.0149,0,0,0,0,0,0,0,0,0,0,0,0,0,-0.0283,-0.0302,-0.0267,-0.0251,-0.0249,-0.0237,-0.0237,-0.0237,-0.0217,-0.0217,-0.0216,-0.0216,-0.0153,-0.0151,-0.0149,-0.0144,0,0,-0.0142,-0.0141,0,0,0,0,0,0,0,0,-0.0284,-0.0282,-0.0254,-0.0252,-0.025,-0.0229,-0.0226,-0.0203,-0.0217,-0.0231,-0.0216,-0.0216,-0.0174,-0.017,-0.0168,-0.0141,-0.0138,-0.0142,-0.0141,-0.014,-0.0139,0,0,0,0,0,0,0,-0.0285,-0.0283,-0.0256,-0.0253,-0.0251,-0.0244,-0.0241,-0.0222,-0.0206,-0.023,-0.0228,-0.0222,-0.0173,-0.017,-0.0166,-0.0137,-0.0142,-0.014,-0.0139,-0.0138,-0.0088,-0.0088,0,0,0,0,0,0,-0.0286,-0.0284,-0.0257,-0.0255,-0.0265,-0.0244,-0.0241,-0.0237,-0.0207,-0.0201,-0.0223,-0.0221,-0.0174,-0.0169,-0.0164,-0.0136,-0.014,-0.0138,-0.0137,-0.0088,-0.0088,-0.0087,0,0,0,0,0,0,-0.0287,-0.0284,-0.0259,-0.0268,-0.0264,-0.0244,-0.024,-0.0237,-0.0236,-0.0201,-0.0196,-0.0225,-0.0174,-0.0167,-0.0147,-0.0134,-0.0137,-0.0135,-0.0088,-0.0088,-0.0088,-0.0093,0,0,0,0,0,0,-0.0288,-0.0285,-0.0289,-0.0268,-0.0263,-0.0256,-0.024,-0.0237,-0.0232,-0.0231,-0.0201,-0.0195,-0.0173,-0.015,-0.0145,-0.0131,-0.0133,-0.0088,-0.0088,-0.0088,-0.0093,-0.0094,-0.0094,0,0,0,0,0,-0.029,-0.0296,-0.029,-0.0287,-0.0268,-0.0256,-0.0254,-0.0239,-0.0233,-0.0237,-0.0213,-0.0196,-0.0146,-0.0149,-0.0142,-0.0128,-0.0088,-0.0088,-0.0088,-0.0093,-0.0093,-0.0094,0,0,0,0,0,0,-0.0314,-0.0294,-0.0286,-0.0287,-0.0274,-0.0252,-0.0255,-0.0244,-0.023,-0.0228,-0.0197,-0.0189,-0.0165,-0.0151,-0.0155,-0.0114,-0.0113,-0.0112,-0.012,-0.012,-0.012,-0.0133,-0.0131,0,0,0,0,0,-0.0322,-0.0322,-0.03,-0.0302,-0.0296,-0.0277,-0.0273,-0.0262,-0.0244,-0.0238,-0.0216,-0.0191,-0.0161,-0.0145,-0.0124,-0.0103,-0.0081,-0.009,-0.009,-0.0091,-0.0098,-0.0034,-0.0028,-0.0087,-0.0087,-0.0087,0,0,-0.0334,-0.0321,-0.0323,-0.0308,-0.0297,-0.0296,-0.0274,-0.027,-0.0266,-0.0232,-0.0224,-0.0193,-0.0157,-0.0131,-0.0119,-0.0116,-0.0067,-0.0091,-0.0091,-0.0098,-0.0033,-0.0027,-0.0021,-0.0087,-0.0087,-0.0087,0,0,-0.0356,-0.0345,-0.0353,-0.0345,-0.033,-0.0315,-0.0315,-0.0296,-0.0284,-0.027,-0.0238,-0.02,-0.0172,-0.0131,-0.0108,-0.0099,-0.0073,-0.0096,-0.0102,-0.0039,-0.0034,-0.0028,-0.0012,-0.0006,-0.0093,-0.0093,-0.0093,0,-0.0371,-0.0378,-0.0355,-0.036,-0.0359,-0.0326,-0.0337,-0.0316,-0.0293,-0.0282,-0.0271,-0.0204,-0.0168,-0.0117,-0.011,-0.0097,-0.0077,-0.0102,-0.0038,-0.0032,-0.0027,-0.0011,-0.0004,-0.0093,-0.0093,-0.0093,-0.0093,0,-0.0397,-0.0406,-0.041,-0.0404,-0.04,-0.0403,-0.0372,-0.0363,-0.0342,-0.0317,-0.0273,-0.0215,-0.0177,-0.0148,-0.0124,-0.0066,-0.0073,-0.0046,-0.0035,-0.0021,-0.0006,0.0002,-0.0094,-0.0093,-0.0093,-0.0093,0,0,-0.0419,-0.0428,-0.043,-0.0447,-0.0426,-0.043,-0.0415,-0.0394,-0.0392,-0.0338,-0.0325,-0.0239,-0.0206,-0.0178,-0.0129,-0.0065,-0.0003,-0.0044,-0.004,-0.0026,0.0101,0.0102,0.011,0.0039,0.0041,0.0042,0.0088,0,-0.0448,-0.0478,-0.0469,-0.0501,-0.0515,-0.0488,-0.0484,-0.0457,-0.0425,-0.0403,-0.0311,-0.0283,-0.0216,-0.0201,-0.0119,-0.0035,0.002,-0.0021,0.0083,0.0084,0.0087,0.0122,0.0048,0.0095,0.0096,0.0098,0.0099,0,-0.0472,-0.0492,-0.0533,-0.0561,-0.0566,-0.0579,-0.0576,-0.0566,-0.051,-0.0486,-0.0419,-0.0363,-0.0262,-0.0214,-0.0044,-0.0075,0.0004,0.0077,0.0081,0.0089,0.0102,0.0082,0.0114,0.0113,0.0112,0.0111,0.011,0,-0.0502,-0.0537,-0.0577,-0.0585,-0.0604,-0.0623,-0.0627,-0.0594,-0.059,-0.0542,-0.0536,-0.041,-0.0365,-0.0216,-0.006,-0.0054,0.0116,0.0142,0.0213,0.0212,0.0198,0.0192,0.0253,0.0253,0.0253,0.0253,0.0253,0,-0.053,-0.0566,-0.0603,-0.0626,-0.068,-0.0675,-0.0711,-0.0697,-0.0675,-0.0664,-0.0583,-0.0544,-0.036,-0.0239,-0.0086,0.0089,0.0101,0.0213,0.0237,0.019,0.0183,0.0203,0.0196,0.0255,0.0254,0.0254,0.0254,0,-0.0555,-0.0578,-0.0633,-0.0678,-0.0698,-0.0736,-0.0773,-0.0787,-0.0768,-0.0753,-0.0743,-0.0644,-0.0476,-0.0294,-0.0074,0.0034,0.0211,0.0262,0.0163,0.018,0.0261,0.0253,0.0342,0.0343,0.0343,0.0344,0.0344,0,-0.0572,-0.0602,-0.0673,-0.0715,-0.0745,-0.0797,-0.0828,-0.083,-0.0835,-0.0793,-0.0781,-0.0661,-0.0559,-0.0257,-0.0071,0.0195,0.0239,0.0283,0.0312,0.0261,0.0277,0.0268,0.026,0.0345,0.0345,0.0345,0.0346,0,-0.0604,-0.0631,-0.0675,-0.0755,-0.0812,-0.0866,-0.0906,-0.0912,-0.0893,-0.0886,-0.0783,-0.0638,-0.0469,-0.024,-0.0055,0.0147,0.0238,0.029,0.029,0.0318,0.0266,0.0279,0.027,0.0348,0.0347,0.0347,0.0347,0,-0.0628,-0.0666,-0.0723,-0.079,-0.0864,-0.0909,-0.0926,-0.0912,-0.0907,-0.0841,-0.0804,-0.0617,-0.0519,-0.0266,-0.0073,0.0105,0.0158,0.0195,0.0201,0.0201,0.0157,0.007,0.0117,0,0,0,0,0,-0.0646,-0.0687,-0.0753,-0.0829,-0.0898,-0.0934,-0.0966,-0.0966,-0.0943,-0.0863,-0.0825,-0.0645,-0.0373,-0.0271,-0.0083,-0.0068,0.0171,0.0151,0.0212,0.0359,0.0357,0.0332,0,0,0,0,0,0,-0.0663,-0.0724,-0.0751,-0.0841,-0.0894,-0.0964,-0.0979,-0.0963,-0.0904,-0.0855,-0.0698,-0.0628,-0.0352,-0.0467,-0.0087,-0.0039,0.0017,0.0278,0.0281,0.0361,0.0358,0.0356,0.033,0,0,0,0,0]}]]